This is the latest recevied weather packets stored in our database for station/object CE1RLP-31. If no packets are shown the sender has not sent any weather packets the latest 10 day(s).
| Time | Temp. | Humidity | Pressure | Rain* | Wind** | Luminosity | Snow |
|---|---|---|---|---|---|---|---|
| 1777305146 | 13.33° C | 13% | 1100 hPa | - | - | - | - |
| 1777304245 | 12.78° C | 13% | 1100.1 hPa | - | - | - | - |
| 1777303345 | 12.78° C | 14% | 1100.3 hPa | - | - | - | - |
| 1777302445 | 12.22° C | 13% | 1100.3 hPa | - | - | - | - |
| 1777301545 | 11.67° C | 13% | 1100.4 hPa | - | - | - | - |
| 1777300645 | 11.11° C | 14% | 1100.2 hPa | - | - | - | - |
| 1777299745 | 10.56° C | 14% | 1100.2 hPa | - | - | - | - |
| 1777298845 | 9.44° C | 14% | 1100.1 hPa | - | - | - | - |
| 1777297945 | 8.89° C | 13% | 1100 hPa | - | - | - | - |
| 1777297045 | 8.33° C | 13% | 1099.9 hPa | - | - | - | - |
| 1777296145 | 7.78° C | 13% | 1099.8 hPa | - | - | - | - |
| 1777295244 | 7.22° C | 14% | 1099.7 hPa | - | - | - | - |
| 1777294344 | 6.67° C | 15% | 1099.5 hPa | - | - | - | - |
| 1777293444 | 6.11° C | 15% | 1099.5 hPa | - | - | - | - |
| 1777292544 | 5.56° C | 15% | 1099.5 hPa | - | - | - | - |
| 1777291644 | 5° C | 15% | 1099.3 hPa | - | - | - | - |
| 1777290744 | 4.44° C | 15% | 1099.4 hPa | - | - | - | - |
| 1777289844 | 3.89° C | 15% | 1099.3 hPa | - | - | - | - |
| 1777288944 | 3.89° C | 13% | 1099.2 hPa | - | - | - | - |
| 1777288044 | 3.89° C | 13% | 1099.1 hPa | - | - | - | - |
| 1777287144 | 3.89° C | 13% | 1099 hPa | - | - | - | - |
| 1777286244 | 3.89° C | 14% | 1098.8 hPa | - | - | - | - |
| 1777285343 | 3.89° C | 13% | 1098.7 hPa | - | - | - | - |
| 1777284443 | 4.44° C | 13% | 1098.6 hPa | - | - | - | - |
| 1777283545 | 4.44° C | 13% | 1098.6 hPa | - | - | - | - |
* Rain since midnight (hover to see other rain measurements)
** Current wind speed in m/s (hover to see current wind gust speed)